Hourly Weather Goksuv

Today, 7 May, Friday

Time Temperature Precipitation Wind Pressure Humidity
00:00 +11°C° 0 mm 3 mps 756 mmHg 79%
01:00 +11°C° 0 mm 3 mps 756 mmHg 80%
02:00 +10°C° 0 mm 3 mps 756 mmHg 81%
03:00 +10°C° 0 mm 3 mps 756 mmHg 82%
04:00 +12°C° 0 mm 2 mps 756 mmHg 81%
05:00 +12°C° 0 mm 2 mps 757 mmHg 80%
06:00 +13°C° 0 mm 1 mps 757 mmHg 79%
07:00 +14°C° 0 mm 1 mps 757 mmHg 73%
08:00 +16°C° 0 mm 2 mps 758 mmHg 66%
09:00 +18°C° 0 mm 2 mps 758 mmHg 60%
10:00 +19°C° 0 mm 2 mps 758 mmHg 58%
11:00 +20°C° 0 mm 2 mps 758 mmHg 57%
12:00 +21°C° 0 mm 2 mps 758 mmHg 55%
13:00 +21°C° 0 mm 2 mps 758 mmHg 55%
14:00 +21°C° 0 mm 2 mps 758 mmHg 55%
15:00 +21°C° 0 mm 3 mps 758 mmHg 55%
16:00 +20°C° 0 mm 3 mps 758 mmHg 60%
17:00 +19°C° 0 mm 3 mps 759 mmHg 66%
18:00 +18°C° 0 mm 3 mps 759 mmHg 71%
19:00 +16°C° 0 mm 3 mps 759 mmHg 74%
20:00 +15°C° 0 mm 2 mps 760 mmHg 77%
21:00 +14°C° 0 mm 2 mps 760 mmHg 80%
22:00 +14°C° 0 mm 1 mps 760 mmHg 78%
23:00 +14°C° 0 mm 1 mps 760 mmHg 77%

Tomorrow, 8 May, Saturday

Time Temperature Precipitation Wind Pressure Humidity
00:00 +14°C° 0 mm 1 mps 760 mmHg 75%
01:00 +14°C° 0 mm 1 mps 760 mmHg 74%
02:00 +14°C° 0 mm 1 mps 760 mmHg 73%
03:00 +14°C° 0 mm 1 mps 760 mmHg 71%
04:00 +14°C° 0 mm 1 mps 760 mmHg 71%
05:00 +15°C° 0 mm 2 mps 759 mmHg 70%
06:00 +16°C° 0 mm 2 mps 759 mmHg 69%
07:00 +18°C° 0 mm 3 mps 759 mmHg 63%
08:00 +20°C° 0 mm 4 mps 759 mmHg 57%
09:00 +22°C° 0 mm 5 mps 758 mmHg 51%
10:00 +23°C° 0 mm 6 mps 758 mmHg 49%
11:00 +23°C° 0 mm 6 mps 757 mmHg 46%
12:00 +24°C° 0 mm 7 mps 757 mmHg 44%
13:00 +24°C° 0 mm 7 mps 756 mmHg 46%
14:00 +24°C° 0 mm 8 mps 756 mmHg 48%
15:00 +23°C° 0 mm 8 mps 755 mmHg 51%
16:00 +22°C° 0 mm 7 mps 755 mmHg 57%
17:00 +20°C° 0 mm 6 mps 755 mmHg 63%
18:00 +19°C° 0 mm 6 mps 755 mmHg 69%
19:00 +17°C° 0 mm 5 mps 755 mmHg 73%
20:00 +17°C° 0 mm 4 mps 755 mmHg 77%
21:00 +15°C° 0 mm 4 mps 755 mmHg 80%
22:00 +16°C° 0 mm 3 mps 755 mmHg 83%
23:00 +16°C° 0 mm 3 mps 754 mmHg 86%

Day after tomorrow, 9 May, Sunday

Time Temperature Precipitation Wind Pressure Humidity
00:00 +15°C° 0 mm 2 mps 754 mmHg 88%
01:00 +15°C° 0 mm 2 mps 754 mmHg 89%
02:00 +15°C° 0 mm 2 mps 753 mmHg 90%
03:00 +14°C° 0 mm 2 mps 753 mmHg 90%
04:00 +15°C° 0 mm 2 mps 753 mmHg 87%
05:00 +16°C° 0 mm 2 mps 752 mmHg 85%
06:00 +16°C° 0 mm 3 mps 752 mmHg 82%
07:00 +18°C° 0 mm 3 mps 751 mmHg 77%
08:00 +19°C° 0 mm 4 mps 751 mmHg 71%
09:00 +21°C° 0 mm 4 mps 751 mmHg 66%
10:00 +21°C° 0 mm 4 mps 751 mmHg 67%
11:00 +21°C° 0 mm 3 mps 751 mmHg 68%
12:00 +21°C° 0 mm 3 mps 751 mmHg 69%
13:00 +22°C° 0 mm 3 mps 751 mmHg 67%
14:00 +23°C° 0 mm 4 mps 751 mmHg 65%
15:00 +25°C° 0 mm 5 mps 751 mmHg 63%
16:00 +23°C° 0.5 mm 4 mps 751 mmHg 69%
17:00 +21°C° 0.5 mm 3 mps 752 mmHg 75%
18:00 +20°C° 0.5 mm 3 mps 752 mmHg 81%
19:00 +17°C° 0.5 mm 6 mps 754 mmHg 82%
20:00 +15°C° 0.5 mm 9 mps 756 mmHg 83%
21:00 +10°C° 0.5 mm 12 mps 757 mmHg 83%
22:00 +10°C° 0.2 mm 12 mps 758 mmHg 83%
23:00 +9°C° 0.2 mm 11 mps 759 mmHg 83%

10 May, Monday

Time Temperature Precipitation Wind Pressure Humidity
00:00 +8°C° 0.2 mm 11 mps 759 mmHg 83%
01:00 +7°C° 0.1 mm 10 mps 760 mmHg 83%
02:00 +7°C° 0.1 mm 10 mps 760 mmHg 84%
03:00 +7°C° 0.1 mm 10 mps 760 mmHg 85%
04:00 +7°C° 0.1 mm 10 mps 761 mmHg 83%
05:00 +7°C° 0.1 mm 10 mps 761 mmHg 80%
06:00 +7°C° 0.1 mm 10 mps 761 mmHg 78%
07:00 +7°C° 1 mm 9 mps 761 mmHg 78%
08:00 +6°C° 1 mm 9 mps 761 mmHg 79%
09:00 +6°C° 1 mm 8 mps 762 mmHg 80%
10:00 +8°C° 1.2 mm 7 mps 762 mmHg 80%
11:00 +8°C° 1.2 mm 7 mps 762 mmHg 80%
12:00 +8°C° 1.2 mm 6 mps 762 mmHg 80%
13:00 +10°C° 0 mm 5 mps 762 mmHg 72%
14:00 +13°C° 0 mm 4 mps 761 mmHg 63%
15:00 +14°C° 0 mm 3 mps 761 mmHg 55%
16:00 +14°C° 0 mm 3 mps 761 mmHg 58%
17:00 +15°C° 0 mm 2 mps 761 mmHg 62%
18:00 +14°C° 0 mm 1 mps 761 mmHg 65%
19:00 +13°C° 0 mm 1 mps 761 mmHg 67%
20:00 +12°C° 0 mm 2 mps 761 mmHg 69%
21:00 +10°C° 0 mm 2 mps 762 mmHg 72%
22:00 +9°C° 0 mm 2 mps 761 mmHg 72%
23:00 +9°C° 0 mm 2 mps 761 mmHg 73%

11 May, Tuesday

Time Temperature Precipitation Wind Pressure Humidity
00:00 +10°C° 0 mm 1 mps 761 mmHg 73%
01:00 +9°C° 0 mm 1 mps 761 mmHg 74%
02:00 +9°C° 0 mm 1 mps 761 mmHg 74%
03:00 +9°C° 0 mm 1 mps 761 mmHg 74%
04:00 +9°C° 0 mm 1 mps 761 mmHg 73%
05:00 +10°C° 0 mm 1 mps 761 mmHg 72%
06:00 +11°C° 0 mm 1 mps 761 mmHg 71%
07:00 +12°C° 0 mm 2 mps 761 mmHg 66%
08:00 +14°C° 0 mm 2 mps 761 mmHg 62%
09:00 +16°C° 0 mm 3 mps 761 mmHg 57%
10:00 +15°C° 0 mm 4 mps 761 mmHg 56%
11:00 +16°C° 0 mm 5 mps 761 mmHg 55%
12:00 +16°C° 0 mm 5 mps 760 mmHg 54%
13:00 +16°C° 0 mm 5 mps 760 mmHg 55%
14:00 +16°C° 0 mm 5 mps 761 mmHg 57%
15:00 +16°C° 0 mm 5 mps 761 mmHg 59%
16:00 +15°C° 0 mm 4 mps 761 mmHg 63%
17:00 +14°C° 0 mm 4 mps 761 mmHg 67%
18:00 +14°C° 0 mm 3 mps 761 mmHg 72%
19:00 +13°C° 0 mm 3 mps 761 mmHg 76%
20:00 +12°C° 0 mm 3 mps 761 mmHg 80%
21:00 +10°C° 0 mm 2 mps 761 mmHg 84%
22:00 +10°C° 0 mm 2 mps 761 mmHg 85%
23:00 +10°C° 0 mm 2 mps 761 mmHg 85%

12 May, Wednesday

Time Temperature Precipitation Wind Pressure Humidity
00:00 +10°C° 0 mm 2 mps 760 mmHg 85%
01:00 +10°C° 0 mm 2 mps 760 mmHg 86%
02:00 +10°C° 0 mm 1 mps 760 mmHg 87%
03:00 +10°C° 0 mm 1 mps 760 mmHg 88%
04:00 +11°C° 0 mm 1 mps 760 mmHg 86%
05:00 +11°C° 0 mm 1 mps 760 mmHg 84%
06:00 +12°C° 0 mm 1 mps 760 mmHg 82%
07:00 +14°C° 0 mm 2 mps 760 mmHg 75%
08:00 +16°C° 0 mm 3 mps 760 mmHg 69%
09:00 +17°C° 0 mm 3 mps 759 mmHg 62%
10:00 +18°C° 0 mm 4 mps 759 mmHg 60%
11:00 +19°C° 0 mm 4 mps 759 mmHg 58%
12:00 +20°C° 0 mm 4 mps 759 mmHg 56%
13:00 +20°C° 0 mm 4 mps 758 mmHg 56%
14:00 +20°C° 0 mm 5 mps 758 mmHg 57%
15:00 +20°C° 0 mm 5 mps 758 mmHg 57%
16:00 +19°C° 0 mm 4 mps 758 mmHg 61%
17:00 +18°C° 0 mm 4 mps 758 mmHg 66%
18:00 +17°C° 0 mm 3 mps 758 mmHg 70%
19:00 +14°C° 0 mm 3 mps 758 mmHg 75%
20:00 +14°C° 0 mm 2 mps 758 mmHg 80%
21:00 +13°C° 0 mm 2 mps 758 mmHg 85%
22:00 +13°C° 0 mm 1 mps 758 mmHg 86%
23:00 +13°C° 0 mm 1 mps 758 mmHg 87%
Show more